Home   Weather   Irving   Past weeks

Flag for USA Past Weather in Irving, Texas, USA — Yesterday and Last 2 Weeks

Now
75 °F

Passing clouds.


Feels Like: 78 °F
Forecast: 60 / 75 °F
Wind: 14 mph from Northeast

Location: Dallas / Fort Worth International Airport

Current Time: Sep 29, 2016 at 1:53:06 AM

Latest Report: Sep 29, 2016 at 12:53 AM


Visibility: 10 mi

Pressure: 30.08 "Hg

Humidity: 55%

Dew Point: 58 °F

Location of IrvingLocation

Past Weather in Irving — Graph

°F

Irving Temperature Yesterday

Maximum temperature yesterday: 90 °F (at 4:53 PM)
Minimum temperature yesterday: 58 °F (at 4:53 AM)
Average temperature yesterday: 74 °F

High & Low Weather Summary for the Past Weeks

 TemperatureHumidityPressure
High99 °F (Sep 19, 2:53 PM)88% (Sep 24, 8:53 PM)30.16 "Hg (Sep 24, 8:53 PM)
Low58 °F (Sep 28, 4:53 AM)23% (Sep 28, 3:53 PM)29.84 "Hg (Sep 16, 4:53 PM)
Average82 °F60%29.98 "Hg
* Reported Sep 13 11:53 PM — Sep 28 11:53 PM, Irving, Weather by CustomWeather, © 2016

Note: Actual official high and low records may vary slightly from our data, if they occured in-between our weather recording intervals... More about our weather records

Advertising

Irving Weather History for the Previous 24 Hours

Scroll right to see more
 ConditionsComfort  
Time TempWeatherWind HumidityBarometerVisibility
11:53 PM
Wed, Sep 28
74 °FPassing clouds.10 mph57%30.06 "Hg10 mi
10:53 PM77 °FPassing clouds.8 mph50%30.05 "Hg10 mi
9:53 PM79 °FPassing clouds.8 mph44%30.03 "Hg10 mi
8:53 PM83 °FPassing clouds.8 mph36%30.01 "Hg10 mi
7:53 PM81 °FPassing clouds.7 mph38%30.01 "Hg10 mi
6:53 PM87 °FPassing clouds.6 mph28%30.00 "Hg10 mi
5:53 PM89 °FPassing clouds.7 mph25%29.99 "Hg10 mi
4:53 PM90 °FPassing clouds.5 mph24%29.99 "Hg10 mi
3:53 PM89 °FPassing clouds.3 mph23%29.99 "Hg10 mi
2:53 PM88 °FPartly sunny.5 mph27%30.00 "Hg10 mi
1:53 PM86 °FScattered clouds.No wind28%30.02 "Hg10 mi
12:53 PM84 °FScattered clouds.3 mph27%30.04 "Hg10 mi
11:53 AM82 °FScattered clouds.No wind32%30.04 "Hg10 mi
10:53 AM77 °FPartly sunny.6 mph39%30.05 "Hg10 mi
9:53 AM71 °FPartly sunny.5 mph49%30.04 "Hg10 mi
8:53 AM65 °FPartly sunny.5 mph63%30.03 "Hg10 mi
7:53 AM59 °FPartly sunny.No wind78%30.02 "Hg10 mi
6:53 AM60 °FPassing clouds.6 mph72%30.01 "Hg10 mi
5:53 AM59 °FPassing clouds.No wind72%29.99 "Hg10 mi
4:53 AM58 °FPassing clouds.No wind78%29.99 "Hg10 mi
3:53 AM60 °FPassing clouds.No wind72%29.99 "Hg10 mi
2:53 AM61 °FPassing clouds.5 mph70%29.98 "Hg10 mi
1:53 AM61 °FPassing clouds.No wind70%30.00 "Hg10 mi
Weather by CustomWeather, © 2016

See weather overviewHow to use our weather pages